Weather History for KLXV - October, 2011

Change the Weather History Date:

Tuesday, October 18, 2011

  Actual Average Record
Temperature  
Mean Temperature 33 °F -  
Max Temperature 41 °F 49 °F 64 °F (2003)
Min Temperature 24 °F 23 °F 10 °F (1976)
Degree Days  
Heating Degree Days 32 29  
Month to date heating degree days 478 477  
Since 1 July heating degree days 1543 1775  
Cooling Degree Days 0 0  
Month to date cooling degree days 0 0  
Year to date cooling degree days 0 0  
Moisture  
Dew Point 16 °F    
Average Humidity 58    
Maximum Humidity 88    
Minimum Humidity 27    
Precipitation  
Precipitation 0.00 in 0.02 in 0.50 in (1993)
Month to date precipitation 1.09 0.52  
Year to date precipitation 13.28 10.55  
Snow  
Snow 0.00 in - - ()
Month to date snowfall 0.0  
Snow Depth 0.00 in    
Sea Level Pressure  
Sea Level Pressure 30.23 in    
Wind  
Wind Speed 8 mph (NE)    
Max Wind Speed 21 mph    
Max Gust Speed 28 mph    
Visibility 10 miles    
Events      
T = Trace of Precipitation, MM = Missing Value Source: NWS Daily Summary

Daily Weather History Graph

Daily Weather History Graph

Search for Another Location

Airport or City:

Trip Planner

Search our weather history database for the weather conditions in past years. The results will help you decide how hot, cold, wet, or windy it might be!

Date:

Astronomy

Oct. 18, 2011 Rise Set
Actual Time 7:17 AM MDT 6:22 PM MDT
Civil Twilight 6:50 AM MDT 6:49 PM MDT
Nautical Twilight 6:19 AM MDT 7:20 PM MDT
Astronomical Twilight 5:48 AM MDT 7:51 PM MDT
Moon 11:07 PM MDT (10/18) 1:09 PM MDT (10/18)
Length of Visible Light 11h 58m
Length of Day
11h 04m
Waning Gibbous, 64% of the Moon is Illuminated
Oct 18
Waning Gibbous
Oct 19
Last Quarter
Oct 26
New
Nov 2
First Quarter
Nov 10
Full

Hourly Weather History & Observations

Time (MDT) Temp. Windchill Dew Point Humidity Pressure Visibility Wind Dir Wind Speed Gust Speed Precip Events Conditions
12:53 AM 25.0 °F 16.3 °F 21.9 °F 88% 30.23 in 10.0 mi East 8.1 mph - N/A   Clear
1:53 AM 25.0 °F - 19.9 °F 81% 30.22 in 10.0 mi Calm Calm - N/A   Scattered Clouds
2:53 AM 25.0 °F 20.7 °F 19.9 °F 81% 30.19 in 10.0 mi ENE 3.5 mph - N/A   Overcast
3:53 AM 26.1 °F 21.9 °F 19.9 °F 78% 30.18 in 10.0 mi ENE 3.5 mph - N/A   Overcast
4:53 AM 25.0 °F 18.1 °F 19.0 °F 78% 30.19 in 10.0 mi NNE 5.8 mph - N/A   Scattered Clouds
5:53 AM 24.1 °F 18.2 °F 21.0 °F 88% 30.23 in 10.0 mi North 4.6 mph - N/A   Scattered Clouds
6:53 AM 26.1 °F 15.6 °F 19.9 °F 78% 30.25 in 10.0 mi NE 11.5 mph - N/A   Scattered Clouds
7:53 AM 25.0 °F 19.3 °F 19.0 °F 78% 30.27 in 10.0 mi NNE 4.6 mph - N/A   Clear
8:53 AM 28.9 °F 23.9 °F 18.0 °F 64% 30.30 in 10.0 mi NE 4.6 mph - N/A   Clear
9:53 AM 32.0 °F 24.2 °F 18.0 °F 56% 30.27 in 10.0 mi NNE 9.2 mph - N/A   Partly Cloudy
10:53 AM 34.0 °F 28.0 °F 17.1 °F 50% 30.27 in 10.0 mi NE 6.9 mph 17.3 mph N/A   Clear
11:53 AM 36.0 °F 28.0 °F 17.1 °F 46% 30.26 in 10.0 mi NE 11.5 mph 19.6 mph N/A   Clear
12:53 PM 37.9 °F 28.2 °F 15.1 °F 39% 30.21 in 10.0 mi NNE 18.4 mph 24.2 mph N/A   Clear
1:53 PM 39.0 °F 30.3 °F 14.0 °F 36% 30.21 in 10.0 mi NNE 16.1 mph 21.9 mph N/A   Clear
2:53 PM 39.9 °F 32.1 °F 14.0 °F 35% 30.21 in 10.0 mi NE 13.8 mph 21.9 mph N/A   Clear
3:53 PM 39.9 °F 32.9 °F 12.0 °F 32% 30.20 in 10.0 mi NE 11.5 mph - N/A   Clear
4:53 PM 39.9 °F 31.4 °F 9.0 °F 28% 30.19 in 10.0 mi NNE 16.1 mph 23.0 mph N/A   Clear
5:53 PM 37.9 °F 30.0 °F 8.1 °F 29% 30.22 in 10.0 mi NNE 12.7 mph - N/A   Clear
6:53 PM 33.1 °F 26.9 °F 10.9 °F 40% 30.25 in 10.0 mi ENE 6.9 mph - N/A   Clear
7:53 PM 28.9 °F 23.9 °F 14.0 °F 54% 30.30 in 10.0 mi NE 4.6 mph - N/A   Clear
8:53 PM 28.9 °F 21.9 °F 15.1 °F 56% 30.27 in 10.0 mi ENE 6.9 mph - N/A   Clear
9:53 PM 27.0 °F 23.0 °F 15.1 °F 61% 30.25 in 10.0 mi ENE 3.5 mph - N/A   Clear
10:53 PM 26.1 °F 20.5 °F 16.0 °F 66% 30.24 in 10.0 mi East 4.6 mph - N/A   Clear
11:53 PM 26.1 °F 19.4 °F 15.1 °F 63% 30.22 in 10.0 mi ENE 5.8 mph - N/A   Clear